Other Surface Observations
Issued by NWS Tucson, AZ

Home | Current Version | Previous Version | Text Only | Print | Product List | Glossary On
Versions: 1 2 3 4 5 6 7 8 9 10 11 12 13 14 15 16 17 18 19 20 21 22 23 24 25 26 27 28 29 30 31 32 33 34 35 36 37 38 39 40 41 42 43 44 45 46 47 48 49 50
000
SXUS55 KTWC 290516
OSOTWC

WEATHER ROUNDUP FOR SOUTHEAST ARIZONA
NATIONAL WEATHER SERVICE TUCSON AZ
1015 PM MST TUE JUL 28 2015

AZZ504>506-514-290615-
LOCATION       SKY/WX    TMP DP  RH WIND       PRES   REMARKS
TUCSON         CLOUDY    73  66  78 S14       30.05R
DAVIS-MONTHAN  CLOUDY    73  65  75 SE8       30.05R
CHILDRENS PARK N/A       72  68  88 E11               PIMA CO DEQ
ALVERNON/22ND  N/A      N/A N/A N/A N/A               PIMA CO DEQ
CHERRY/GLENN   N/A      N/A N/A N/A N/A               PIMA CO DEQ
TANGERINE      N/A       74 N/A N/A S12               PIMA CO DEQ
CONTL RANCH    N/A       76  69  78 SE11              PIMA CO DEQ
GRANT/1ST      N/A       73  69  87 SW3               PIMA CO DEQ
CRAYCROFT/22ND N/A      N/A N/A N/A N/A               PIMA CO DEQ
GOLFLINKS/KOLB N/A      N/A N/A N/A N/A               PIMA CO DEQ
AJO/12TH       N/A       73  68  84 SE12              PIMA CO DEQ
SAGUARO EAST   N/A      N/A N/A N/A N/A               PIMA CO DEQ
FAIRGROUNDS    N/A       70 N/A N/A S12               PIMA CO DEQ
SAGUARO        N/A       74  68  83 E4G10             *SABINO CYN
SAN CARLOS     N/A       82  57  43 NE4G13            *SAN CARLOS
GREEN VALLEY   N/A       69  68  97 S6                PIMA CO DEQ
HORSE CAMP CYN N/A       79  57  47 W8G21             *ARAVAIPA CYN
RINCON MTNS    N/A       58  52  80 NE4               *NR MANNING CAMP
$$

AZZ509>511-290615-
LOCATION       SKY/WX    TMP DP  RH WIND       PRES   REMARKS
SAFFORD        CLOUDY    86  56  35 N16       30.00R
STRAY HORSE    N/A       64  47  53 N6G11             *
TRAIL CABIN    N/A       71  54  55 E3                *N OF GRANVILLE
BLACK HILLS    N/A       87  54  33 NW10G20           *N OF FT THOMAS
DRY LAKE       N/A       64  50  60 N3                *NATANES MTNS
NOON CREEK     N/A       79  49  35 SW7G12            *PINALENO MTNS
COLUMBINE      N/A       52  52  100 CALM             *PINALENO MTNS
GUTHRIE        N/A       74  49  41 N15G19            *SW OF GUTHRIE
$$

AZZ502-503-513-290615-
LOCATION       SKY/WX    TMP DP  RH WIND       PRES   REMARKS
NOGALES        CLOUDY    68  66  93 S3        30.16R
SELLS          N/A       78  63  61 SE16G24           *
SASABE         N/A       69  65  88 CALM              *ALTAR VLY
HOPKINS        N/A       55  52  91 W16G22            *SANTA RITA MTNS
CARR CYN       N/A       69  61  76 W2                *W OF HEREFORD
$$

AZZ507-508-512-290615-
LOCATION       SKY/WX    TMP DP  RH WIND       PRES   REMARKS
SIERRA VISTA   CLOUDY    70  58  65 W13       30.19S
DOUGLAS          N/A    N/A N/A N/A MISG      30.14R
EMPIRE MTNS    N/A       65  62  90 S5                *LAS CIENEGAS NCA
MULESHOE RANCH N/A       70  64  80 CALM              *PRESERVE
HEADQUARTERS   N/A       70  58  65 SW2G10            *CHIRICAHUA MTNS
$$

.............................NOTES.............................
THIS IS AN AUTOMATED COLLECTIVE WITH MINIMAL QUALITY CONTROL.
PIMA CO DEQ SITES HAVE NONSTANDARD WIND SENSOR HEIGHTS.
PIMA CO DEQ SITES DO NOT REPORT WIND GUSTS.
* INDICATES WIND SENSORS LOCATED AT 20 FEET INSTEAD OF 33 FEET.
..............................KEY..............................
SKY/WX - SKY CONDITION/WEATHER
TMP    - TEMPERATURE IN FAHRENHEIT
DP     - DEWPOINT IN FAHRENHEIT
RH     - RELATIVE HUMIDITY IN PERCENT
WIND   - DIRECTION AND SPEED IN MILES PER HOUR (MPH)
VRB    - VARIABLE WIND DIRECTION
PRES   - MEAN SEA LEVEL PRESSURE IN INCHES OF MERCURY
         F - FALLING PRESSURE   R - RISING PRESSURE
         S - STEADY PRESSURE
VSB    - VISIBILITY IN MILES
HX     - HEAT INDEX IN FAHRENHEIT
WCI    - WIND CHILL INDEX IN FAHRENHEIT
N/A    - NOT AVAILABLE
AFB    - AIR FORCE BASE
         DAVIS-MONTHAN IS DAVIS-MONTHAN AIR FORCE BASE
CYN    - CANYON
MTNS   - MOUNTAINS
NCA    - NATIONAL CONSERVATION AREA
NR     - NEAR
VLY    - VALLEY
CONTL  - CONTINENTAL
PIMA CO DEQ - PIMA COUNTY DEPT OF ENVIRONMENTAL QUALITY



USA.gov is the U.S. government's official web portal to all federal, state and local government web resources and services.